Time,TemperatureF,DewpointF,PressureIn,WindDirection,WindDirectionDegrees,WindSpeedMPH,WindSpeedGustMPH,Humidity,HourlyPrecipIn,Conditions,Clouds,dailyrainin,SoftwareType,DateUTC
2013-02-03 00:00:00,44.9,13.8,30.08,NE,52,3.0,22.5,28,0.00,,SCT250,0.00,VWS V14.01,2013-02-03 07:00:00,
2013-02-03 00:05:00,44.8,13.7,30.08,NE,52,1.5,22.5,28,0.00,,SCT250,0.00,VWS V14.01,2013-02-03 07:05:00,
2013-02-03 00:10:00,44.6,13.5,30.08,NE,53,3.0,22.5,28,0.00,,SCT250,0.00,VWS V14.01,2013-02-03 07:10:00,
2013-02-03 00:15:00,44.3,14.1,30.08,NE,53,1.5,22.5,29,0.00,,SCT250,0.00,VWS V14.01,2013-02-03 07:15:00,
2013-02-03 00:20:00,44.2,14.0,30.07,NE,51,0.0,22.5,29,0.00,,SCT250,0.00,VWS V14.01,2013-02-03 07:20:00,
2013-02-03 00:25:00,44.1,13.9,30.07,NE,50,0.0,22.5,29,0.00,,SCT250,0.00,VWS V14.01,2013-02-03 07:25:00,
2013-02-03 00:30:00,43.9,13.7,30.07,NE,50,0.0,22.5,29,0.00,,SCT250,0.00,VWS V14.01,2013-02-03 07:30:00,
2013-02-03 00:35:00,43.8,15.1,30.06,NE,50,0.0,22.5,31,0.00,,SCT250,0.00,VWS V14.01,2013-02-03 07:35:00,
2013-02-03 00:40:00,43.6,13.5,30.06,NE,50,0.0,22.5,29,0.00,,SCT250,0.00,VWS V14.01,2013-02-03 07:40:00,
2013-02-03 00:45:00,43.6,13.5,30.06,NE,50,1.5,22.5,29,0.00,,SCT250,0.00,VWS V14.01,2013-02-03 07:45:00,
2013-02-03 00:50:00,43.9,12.9,30.06,NE,50,3.0,22.5,28,0.00,,SCT250,0.00,VWS V14.01,2013-02-03 07:50:00,
2013-02-03 00:55:00,44.5,12.6,30.06,NE,52,3.0,22.5,27,0.00,,BKN250,0.00,VWS V14.01,2013-02-03 07:55:00,
2013-02-03 01:00:00,45.2,13.2,30.06,NE,53,3.0,22.5,27,0.00,,BKN250,0.00,VWS V14.01,2013-02-03 08:00:00,
2013-02-03 01:05:00,45.7,13.6,30.06,NE,52,3.0,22.5,27,0.00,,BKN250,0.00,VWS V14.01,2013-02-03 08:05:00,
2013-02-03 01:10:00,46.0,13.1,30.06,NE,51,4.5,22.5,26,0.00,,BKN250,0.00,VWS V14.01,2013-02-03 08:10:00,
2013-02-03 01:15:00,46.4,13.4,30.06,NE,49,3.0,22.5,26,0.00,,BKN250,0.00,VWS V14.01,2013-02-03 08:15:00,
2013-02-03 01:20:00,46.5,13.5,30.05,NE,49,3.0,22.5,26,0.00,,BKN250,0.00,VWS V14.01,2013-02-03 08:20:00,
2013-02-03 01:25:00,46.4,13.4,30.05,NE,49,0.0,22.5,26,0.00,,BKN250,0.00,VWS V14.01,2013-02-03 08:25:00,
2013-02-03 01:30:00,46.2,13.2,30.05,NE,49,0.0,22.5,26,0.00,,BKN250,0.00,VWS V14.01,2013-02-03 08:30:00,
2013-02-03 01:35:00,46.0,13.9,30.05,NE,51,0.0,22.5,27,0.00,,BKN250,0.00,VWS V14.01,2013-02-03 08:35:00,
2013-02-03 01:40:00,45.4,13.4,30.05,North,0,0.0,22.5,27,0.00,,BKN250,0.00,VWS V14.01,2013-02-03 08:40:00,
2013-02-03 01:45:00,45.1,14.8,30.05,North,0,0.0,22.5,29,0.00,,BKN250,0.00,VWS V14.01,2013-02-03 08:45:00,
2013-02-03 01:50:00,44.6,13.5,30.05,North,0,1.5,22.5,28,0.00,,BKN250,0.00,VWS V14.01,2013-02-03 08:50:00,
2013-02-03 01:55:00,44.1,13.1,30.05,North,0,3.0,22.5,28,0.00,,BKN190,0.00,VWS V14.01,2013-02-03 08:55:00,
2013-02-03 02:00:00,43.9,12.9,30.05,North,0,1.5,22.5,28,0.00,,BKN190,0.00,VWS V14.01,2013-02-03 09:00:00,
2013-02-03 02:05:00,43.8,13.6,30.05,NE,53,0.0,22.5,29,0.00,,BKN190,0.00,VWS V14.01,2013-02-03 09:05:00,
2013-02-03 02:10:00,43.6,13.5,30.05,NE,51,1.5,22.5,29,0.00,,BKN190,0.00,VWS V14.01,2013-02-03 09:10:00,
2013-02-03 02:15:00,43.6,12.7,30.05,NE,51,3.0,22.5,28,0.00,,BKN190,0.00,VWS V14.01,2013-02-03 09:15:00,
2013-02-03 02:20:00,44.1,12.3,30.04,NE,52,3.0,22.5,27,0.00,,BKN190,0.00,VWS V14.01,2013-02-03 09:20:00,
2013-02-03 02:25:00,44.8,13.7,30.04,North,0,3.0,22.5,28,0.00,,BKN190,0.00,VWS V14.01,2013-02-03 09:25:00,
2013-02-03 02:30:00,44.8,13.7,30.04,North,0,3.0,22.5,28,0.00,,BKN190,0.00,VWS V14.01,2013-02-03 09:30:00,
2013-02-03 02:35:00,44.5,13.4,30.04,North,0,3.0,22.5,28,0.00,,BKN190,0.00,VWS V14.01,2013-02-03 09:35:00,
2013-02-03 02:40:00,44.1,13.1,30.04,North,0,1.5,22.5,28,0.00,,BKN190,0.00,VWS V14.01,2013-02-03 09:40:00,
2013-02-03 02:45:00,43.6,13.5,30.04,NE,51,3.0,22.5,29,0.00,,BKN190,0.00,VWS V14.01,2013-02-03 09:45:00,
2013-02-03 02:50:00,43.2,13.1,30.03,NE,51,3.0,22.5,29,0.00,,BKN190,0.00,VWS V14.01,2013-02-03 09:50:00,
2013-02-03 02:55:00,42.9,13.6,30.03,NE,51,3.0,22.5,30,0.00,,BKN190,0.00,VWS V14.01,2013-02-03 09:55:00,
2013-02-03 03:00:00,42.6,14.1,30.03,North,0,1.5,22.5,31,0.00,,BKN190,0.00,VWS V14.01,2013-02-03 10:00:00,
2013-02-03 03:05:00,42.5,13.3,30.03,North,0,1.5,22.5,30,0.00,,BKN190,0.00,VWS V14.01,2013-02-03 10:05:00,
2013-02-03 03:10:00,42.2,14.5,30.03,NE,51,1.5,22.5,32,0.00,,BKN190,0.00,VWS V14.01,2013-02-03 10:10:00,
2013-02-03 03:15:00,42.1,13.7,30.03,NE,51,0.0,22.5,31,0.00,,BKN190,0.00,VWS V14.01,2013-02-03 10:15:00,
2013-02-03 03:20:00,41.9,14.2,30.03,North,0,4.5,22.5,32,0.00,,BKN190,0.00,VWS V14.01,2013-02-03 10:20:00,
2013-02-03 03:25:00,42.3,13.8,30.03,NNE,30,3.0,22.5,31,0.00,,BKN190,0.00,VWS V14.01,2013-02-03 10:25:00,
2013-02-03 03:30:00,42.9,13.6,30.03,NNE,27,4.5,22.5,30,0.00,,BKN190,0.00,VWS V14.01,2013-02-03 10:30:00,
2013-02-03 03:35:00,43.1,13.8,30.03,NNE,15,3.0,22.5,30,0.00,,BKN190,0.00,VWS V14.01,2013-02-03 10:35:00,
2013-02-03 03:40:00,43.3,13.2,30.03,NNE,15,3.0,22.5,29,0.00,,BKN190,0.00,VWS V14.01,2013-02-03 10:40:00,
2013-02-03 03:45:00,43.5,13.4,30.03,NNE,14,3.0,22.5,29,0.00,,BKN190,0.00,VWS V14.01,2013-02-03 10:45:00,
2013-02-03 03:50:00,43.6,13.5,30.03,North,11,4.5,22.5,29,0.00,,BKN190,0.00,VWS V14.01,2013-02-03 10:50:00,
2013-02-03 03:55:00,43.9,12.9,30.03,North,6,4.5,22.5,28,0.00,,OVC190,0.00,VWS V14.01,2013-02-03 10:55:00,
2013-02-03 04:00:00,43.9,12.9,30.03,North,0,4.5,22.5,28,0.00,,OVC190,0.00,VWS V14.01,2013-02-03 11:00:00,
2013-02-03 04:05:00,43.8,12.8,30.02,North,0,3.0,22.5,28,0.00,,OVC190,0.00,VWS V14.01,2013-02-03 11:05:00,
2013-02-03 04:10:00,43.8,12.8,30.02,North,3,3.0,22.5,28,0.00,,OVC190,0.00,VWS V14.01,2013-02-03 11:10:00,
2013-02-03 04:15:00,43.6,11.8,30.02,North,4,3.0,22.5,27,0.00,,OVC190,0.00,VWS V14.01,2013-02-03 11:15:00,
2013-02-03 04:20:00,43.6,12.7,30.02,North,2,4.5,22.5,28,0.00,,OVC190,0.00,VWS V14.01,2013-02-03 11:20:00,
2013-02-03 04:25:00,43.8,12.8,30.02,North,3,4.5,22.5,28,0.00,,OVC190,0.00,VWS V14.01,2013-02-03 11:25:00,
2013-02-03 04:30:00,43.8,12.8,30.02,NNW,345,3.0,22.5,28,0.00,,OVC190,0.00,VWS V14.01,2013-02-03 11:30:00,
2013-02-03 04:35:00,43.8,12.8,30.01,North,0,6.0,22.5,28,0.00,,OVC190,0.00,VWS V14.01,2013-02-03 11:35:00,
2013-02-03 04:40:00,43.5,13.4,30.01,North,351,3.0,22.5,29,0.00,,OVC190,0.00,VWS V14.01,2013-02-03 11:40:00,
2013-02-03 04:45:00,43.3,12.4,30.01,North,354,6.0,22.5,28,0.00,,OVC190,0.00,VWS V14.01,2013-02-03 11:45:00,
2013-02-03 04:50:00,43.2,12.3,30.01,NNE,17,6.0,22.5,28,0.00,,OVC190,0.00,VWS V14.01,2013-02-03 11:50:00,
2013-02-03 04:55:00,42.8,12.0,30.01,North,0,7.5,22.5,28,0.00,,OVC190,0.00,VWS V14.01,2013-02-03 11:55:00,
2013-02-03 04:59:00,42.5,11.7,30.01,NNE,20,4.5,22.5,28,0.00,,OVC190,0.00,VWS V14.01,2013-02-03 11:59:00,
2013-02-03 05:00:00,42.3,11.5,30.01,NNE,32,4.5,22.5,28,0.00,,BKN200,0.00,VWS V14.01,2013-02-03 12:00:00,
2013-02-03 05:04:00,42.3,11.5,30.01,North,0,4.5,22.5,28,0.00,,OVC190,0.00,VWS V14.01,2013-02-03 12:04:00,
2013-02-03 05:09:00,42.5,11.7,30.01,NNE,13,6.0,22.5,28,0.00,,OVC190,0.00,VWS V14.01,2013-02-03 12:09:00,
2013-02-03 05:10:00,42.6,11.8,30.01,NNE,33,4.5,22.5,28,0.00,,BKN200,0.00,VWS V14.01,2013-02-03 12:10:00,
2013-02-03 05:14:00,42.8,12.0,30.01,North,0,4.5,22.5,28,0.00,,OVC190,0.00,VWS V14.01,2013-02-03 12:14:00,
2013-02-03 05:19:00,42.8,12.0,30.01,NNE,30,3.0,22.5,28,0.00,,OVC190,0.00,VWS V14.01,2013-02-03 12:19:00,
2013-02-03 05:20:00,42.9,12.1,30.01,NNE,30,3.0,22.5,28,0.00,,BKN200,0.00,VWS V14.01,2013-02-03 12:20:00,
2013-02-03 05:24:00,42.9,12.1,30.01,NNE,33,4.5,22.5,28,0.00,,OVC190,0.00,VWS V14.01,2013-02-03 12:24:00,
2013-02-03 05:29:00,43.3,11.6,30.01,NNE,15,4.5,22.5,27,0.00,,OVC190,0.00,VWS V14.01,2013-02-03 12:29:00,
2013-02-03 05:30:00,43.6,12.7,30.01,North,0,4.5,22.5,28,0.00,,BKN200,0.00,VWS V14.01,2013-02-03 12:30:00,
2013-02-03 05:34:00,43.6,12.7,30.01,NNE,20,3.0,22.5,28,0.00,,OVC190,0.00,VWS V14.01,2013-02-03 12:34:00,
2013-02-03 05:39:00,43.8,12.8,30.01,NNE,20,4.5,22.5,28,0.00,,OVC190,0.00,VWS V14.01,2013-02-03 12:39:00,
2013-02-03 05:40:00,43.6,12.7,30.01,NNE,16,7.5,22.5,28,0.00,,BKN200,0.00,VWS V14.01,2013-02-03 12:40:00,
2013-02-03 05:44:00,43.6,12.7,30.01,North,1,6.0,22.5,28,0.00,,OVC190,0.00,VWS V14.01,2013-02-03 12:44:00,
2013-02-03 05:49:00,43.5,12.6,30.01,North,1,4.5,22.5,28,0.00,,OVC190,0.00,VWS V14.01,2013-02-03 12:49:00,
2013-02-03 05:50:00,43.5,11.8,30.01,North,0,6.0,22.5,27,0.00,,BKN200,0.00,VWS V14.01,2013-02-03 12:50:00,
2013-02-03 05:54:00,43.5,11.8,30.01,North,0,7.5,22.5,27,0.00,,OVC190,0.00,VWS V14.01,2013-02-03 12:54:00,
2013-02-03 05:59:00,43.5,12.6,30.01,NNW,344,7.5,22.5,28,0.00,,OVC190,0.00,VWS V14.01,2013-02-03 12:59:00,
2013-02-03 06:00:00,43.5,11.8,30.01,North,6,6.0,22.5,27,0.00,,BKN200,0.00,VWS V14.01,2013-02-03 13:00:00,
2013-02-03 06:04:00,43.5,12.6,30.01,North,0,3.0,22.5,28,0.00,,OVC190,0.00,VWS V14.01,2013-02-03 13:04:00,
2013-02-03 06:09:00,43.3,11.6,30.01,North,1,7.5,22.5,27,0.00,,OVC190,0.00,VWS V14.01,2013-02-03 13:09:00,
2013-02-03 06:10:00,43.1,11.4,30.01,North,356,1.5,22.5,27,0.00,,BKN200,0.00,VWS V14.01,2013-02-03 13:10:00,
2013-02-03 06:14:00,43.1,11.4,30.01,North,11,7.5,22.5,27,0.00,,OVC190,0.00,VWS V14.01,2013-02-03 13:14:00,
2013-02-03 06:19:00,43.1,11.4,30.01,North,1,7.5,22.5,27,0.00,,OVC190,0.00,VWS V14.01,2013-02-03 13:19:00,
2013-02-03 06:20:00,43.1,11.4,30.01,North,10,7.5,22.5,27,0.00,,BKN200,0.00,VWS V14.01,2013-02-03 13:20:00,
2013-02-03 06:24:00,43.1,11.4,30.01,North,6,7.5,22.5,27,0.00,,OVC190,0.00,VWS V14.01,2013-02-03 13:24:00,
2013-02-03 06:29:00,42.9,11.2,30.01,North,358,6.0,22.5,27,0.00,,OVC190,0.00,VWS V14.01,2013-02-03 13:29:00,
2013-02-03 06:30:00,42.9,11.2,30.01,North,8,7.5,22.5,27,0.00,,BKN200,0.00,VWS V14.01,2013-02-03 13:30:00,
2013-02-03 06:34:00,42.9,11.2,30.01,North,358,6.0,22.5,27,0.00,,OVC190,0.00,VWS V14.01,2013-02-03 13:34:00,
2013-02-03 06:39:00,42.9,11.2,30.01,North,4,4.5,22.5,27,0.00,,OVC190,0.00,VWS V14.01,2013-02-03 13:39:00,
2013-02-03 06:40:00,42.9,11.2,30.01,NNE,18,9.0,22.5,27,0.00,,BKN200,0.00,VWS V14.01,2013-02-03 13:40:00,
2013-02-03 06:44:00,42.9,11.2,30.01,NNE,18,9.0,22.5,27,0.00,,OVC190,0.00,VWS V14.01,2013-02-03 13:44:00,
2013-02-03 06:49:00,42.8,11.1,30.01,North,11,6.0,22.5,27,0.00,,OVC190,0.00,VWS V14.01,2013-02-03 13:49:00,
2013-02-03 06:50:00,42.6,11.0,30.01,North,3,6.0,22.5,27,0.00,,BKN200,0.00,VWS V14.01,2013-02-03 13:50:00,
2013-02-03 06:54:00,42.6,11.0,30.01,North,356,9.0,22.5,27,0.00,,OVC190,0.00,VWS V14.01,2013-02-03 13:54:00,
2013-02-03 06:59:00,42.8,11.1,30.01,North,354,7.5,22.5,27,0.00,,OVC190,0.00,VWS V14.01,2013-02-03 13:59:00,
2013-02-03 07:00:00,42.8,11.1,30.01,North,0,6.0,22.5,27,0.00,,BKN200,0.00,VWS V14.01,2013-02-03 14:00:00,
2013-02-03 07:04:00,42.8,11.1,30.01,North,6,7.5,22.5,27,0.00,,OVC190,0.00,VWS V14.01,2013-02-03 14:04:00,
2013-02-03 07:09:00,42.8,11.1,30.01,North,11,6.0,22.5,27,0.00,,OVC190,0.00,VWS V14.01,2013-02-03 14:09:00,
2013-02-03 07:10:00,42.6,11.0,30.01,North,0,6.0,22.5,27,0.00,,BKN200,0.00,VWS V14.01,2013-02-03 14:10:00,
2013-02-03 07:14:00,42.6,11.0,30.01,North,0,9.0,22.5,27,0.00,,OVC190,0.00,VWS V14.01,2013-02-03 14:14:00,
2013-02-03 07:19:00,42.3,10.7,30.01,North,358,6.0,22.5,27,0.00,,OVC190,0.00,VWS V14.01,2013-02-03 14:19:00,
2013-02-03 07:20:00,42.2,10.6,30.01,North,358,6.0,22.5,27,0.00,,BKN200,0.00,VWS V14.01,2013-02-03 14:20:00,
2013-02-03 07:24:00,42.2,11.4,30.01,North,357,9.0,22.5,28,0.00,,OVC190,0.00,VWS V14.01,2013-02-03 14:24:00,
2013-02-03 07:29:00,42.2,11.4,30.01,North,352,9.0,22.5,28,0.00,,OVC190,0.00,VWS V14.01,2013-02-03 14:29:00,
2013-02-03 07:30:00,42.2,11.4,30.01,North,3,7.5,22.5,28,0.00,,BKN200,0.00,VWS V14.01,2013-02-03 14:30:00,
2013-02-03 07:34:00,42.2,11.4,30.01,NNW,345,7.5,22.5,28,0.00,,OVC190,0.00,VWS V14.01,2013-02-03 14:34:00,
2013-02-03 07:39:00,42.1,11.4,30.01,North,353,6.0,22.5,28,0.00,,OVC190,0.00,VWS V14.01,2013-02-03 14:39:00,
2013-02-03 07:40:00,42.1,10.6,30.01,NNW,346,3.0,22.5,27,0.00,,BKN200,0.00,VWS V14.01,2013-02-03 14:40:00,
2013-02-03 07:44:00,41.9,10.4,30.01,North,4,6.0,22.5,27,0.00,,OVC190,0.00,VWS V14.01,2013-02-03 14:44:00,
2013-02-03 07:49:00,41.8,10.3,30.01,North,0,9.0,22.5,27,0.00,,OVC190,0.00,VWS V14.01,2013-02-03 14:49:00,
2013-02-03 07:50:00,41.6,10.9,30.01,North,3,4.5,22.5,28,0.00,,BKN200,0.00,VWS V14.01,2013-02-03 14:50:00,
2013-02-03 07:54:00,41.6,10.9,30.01,NNW,335,4.5,22.5,28,0.00,,OVC190,0.00,VWS V14.01,2013-02-03 14:54:00,
2013-02-03 07:59:00,41.6,10.9,30.01,North,1,7.5,22.5,28,0.00,,OVC190,0.00,VWS V14.01,2013-02-03 14:59:00,
2013-02-03 08:00:00,41.8,10.3,30.01,North,0,9.0,22.5,27,0.00,,BKN200,0.00,VWS V14.01,2013-02-03 15:00:00,
2013-02-03 08:04:00,41.8,11.1,30.01,North,0,10.5,22.5,28,0.00,,OVC190,0.00,VWS V14.01,2013-02-03 15:04:00,
2013-02-03 08:09:00,41.8,11.1,30.01,North,358,6.0,22.5,28,0.00,,OVC190,0.00,VWS V14.01,2013-02-03 15:09:00,
2013-02-03 08:10:00,41.9,10.4,30.01,North,4,9.0,22.5,27,0.00,,BKN200,0.00,VWS V14.01,2013-02-03 15:10:00,
2013-02-03 08:14:00,41.9,10.4,30.01,North,0,7.5,22.5,27,0.00,,OVC190,0.00,VWS V14.01,2013-02-03 15:14:00,
2013-02-03 08:19:00,42.2,10.6,30.00,NNE,21,3.0,22.5,27,0.00,,OVC190,0.00,VWS V14.01,2013-02-03 15:19:00,
2013-02-03 08:20:00,42.6,11.8,30.00,North,0,4.5,22.5,28,0.00,,BKN200,0.00,VWS V14.01,2013-02-03 15:20:00,
2013-02-03 08:24:00,42.8,11.1,30.00,NNE,27,9.0,22.5,27,0.00,,OVC190,0.00,VWS V14.01,2013-02-03 15:24:00,
2013-02-03 08:29:00,43.2,12.3,30.00,NNW,337,7.5,22.5,28,0.00,,OVC190,0.00,VWS V14.01,2013-02-03 15:29:00,
2013-02-03 08:30:00,43.5,12.6,30.00,North,0,6.0,22.5,28,0.00,,BKN200,0.00,VWS V14.01,2013-02-03 15:30:00,
2013-02-03 08:34:00,43.5,12.6,30.00,NNE,12,9.0,22.5,28,0.00,,OVC190,0.00,VWS V14.01,2013-02-03 15:34:00,
2013-02-03 08:39:00,43.9,12.9,30.00,North,357,6.0,22.5,28,0.00,,OVC190,0.00,VWS V14.01,2013-02-03 15:39:00,
2013-02-03 08:40:00,44.3,12.4,30.00,North,0,6.0,22.5,27,0.00,,BKN200,0.00,VWS V14.01,2013-02-03 15:40:00,
2013-02-03 08:44:00,44.3,12.4,30.00,North,3,6.0,22.5,27,0.00,,OVC190,0.00,VWS V14.01,2013-02-03 15:44:00,
2013-02-03 08:49:00,44.9,13.0,30.00,North,8,4.5,22.5,27,0.00,,OVC190,0.00,VWS V14.01,2013-02-03 15:49:00,
2013-02-03 08:50:00,45.4,13.4,30.00,North,353,6.0,22.5,27,0.00,,BKN200,0.00,VWS V14.01,2013-02-03 15:50:00,
2013-02-03 08:54:00,45.4,13.4,30.00,North,351,3.0,22.5,27,0.00,,OVC190,0.00,VWS V14.01,2013-02-03 15:54:00,
2013-02-03 08:59:00,45.8,13.7,30.00,North,0,9.0,22.5,27,0.00,,OVC190,0.00,VWS V14.01,2013-02-03 15:59:00,
2013-02-03 09:00:00,46.2,14.1,30.00,North,352,6.0,22.5,27,0.00,,BKN200,0.00,VWS V14.01,2013-02-03 16:00:00,
2013-02-03 09:04:00,46.4,14.2,30.00,NNW,348,4.5,22.5,27,0.00,,OVC190,0.00,VWS V14.01,2013-02-03 16:04:00,
2013-02-03 09:09:00,47.0,13.9,30.00,North,353,6.0,22.5,26,0.00,,OVC190,0.00,VWS V14.01,2013-02-03 16:09:00,
2013-02-03 09:10:00,47.3,14.2,30.00,NNE,15,3.0,22.5,26,0.00,,BKN200,0.00,VWS V14.01,2013-02-03 16:10:00,
2013-02-03 09:14:00,47.3,14.2,30.00,NNE,15,3.0,22.5,26,0.00,,OVC190,0.00,VWS V14.01,2013-02-03 16:14:00,
2013-02-03 09:19:00,47.9,14.7,30.00,North,2,4.5,22.5,26,0.00,,OVC190,0.00,VWS V14.01,2013-02-03 16:19:00,
2013-02-03 09:20:00,48.5,15.2,30.00,NW,324,6.0,22.5,26,0.00,,BKN200,0.00,VWS V14.01,2013-02-03 16:20:00,
2013-02-03 09:24:00,48.6,15.3,30.00,NW,324,6.0,22.5,26,0.00,,OVC190,0.00,VWS V14.01,2013-02-03 16:24:00,
2013-02-03 09:29:00,49.2,15.8,30.00,NNW,327,4.5,22.5,26,0.00,,OVC190,0.00,VWS V14.01,2013-02-03 16:29:00,
2013-02-03 09:30:00,49.2,14.9,30.00,NNW,343,4.5,22.5,25,0.00,,BKN200,0.00,VWS V14.01,2013-02-03 16:30:00,
2013-02-03 09:34:00,49.4,15.1,30.00,NNW,343,3.0,22.5,25,0.00,,OVC190,0.00,VWS V14.01,2013-02-03 16:34:00,
2013-02-03 09:39:00,49.8,15.4,30.00,NNW,344,4.5,22.5,25,0.00,,OVC190,0.00,VWS V14.01,2013-02-03 16:39:00,
2013-02-03 09:40:00,50.1,15.7,30.00,NNW,342,4.5,22.5,25,0.00,,BKN200,0.00,VWS V14.01,2013-02-03 16:40:00,
2013-02-03 09:44:00,50.1,15.7,30.00,NNW,342,3.0,22.5,25,0.00,,OVC190,0.00,VWS V14.01,2013-02-03 16:44:00,
2013-02-03 09:49:00,50.7,16.2,29.99,NNW,342,0.0,22.5,25,0.00,,OVC190,0.00,VWS V14.01,2013-02-03 16:49:00,
2013-02-03 09:50:00,51.1,15.6,29.99,NNW,342,3.0,22.5,24,0.00,,BKN200,0.00,VWS V14.01,2013-02-03 16:50:00,
2013-02-03 09:54:00,51.1,15.6,29.99,NNW,342,1.5,22.5,24,0.00,,OVC190,0.00,VWS V14.01,2013-02-03 16:54:00,
2013-02-03 09:59:00,51.7,16.1,29.99,NNW,342,3.0,22.5,24,0.00,,OVC120,0.00,VWS V14.01,2013-02-03 16:59:00,
2013-02-03 10:00:00,52.2,16.5,29.98,North,1,4.5,22.5,24,0.00,,BKN200,0.00,VWS V14.01,2013-02-03 17:00:00,
2013-02-03 10:04:00,52.2,16.5,29.98,North,0,3.0,22.5,24,0.00,,OVC120,0.00,VWS V14.01,2013-02-03 17:04:00,
2013-02-03 10:09:00,52.5,16.8,29.98,NNE,14,0.0,22.5,24,0.00,,OVC120,0.00,VWS V14.01,2013-02-03 17:09:00,
2013-02-03 10:10:00,52.9,16.1,29.98,NNE,15,0.0,22.5,23,0.00,,BKN200,0.00,VWS V14.01,2013-02-03 17:10:00,
2013-02-03 10:14:00,52.9,16.1,29.98,NNE,15,0.0,22.5,23,0.00,,OVC120,0.00,VWS V14.01,2013-02-03 17:14:00,
2013-02-03 10:19:00,52.9,17.1,29.98,NNE,15,1.5,22.5,24,0.00,,OVC120,0.00,VWS V14.01,2013-02-03 17:19:00,
2013-02-03 10:20:00,53.2,16.4,29.98,North,349,3.0,22.5,23,0.00,,BKN200,0.00,VWS V14.01,2013-02-03 17:20:00,
2013-02-03 10:24:00,53.2,16.4,29.98,North,349,3.0,22.5,23,0.00,,OVC120,0.00,VWS V14.01,2013-02-03 17:24:00,
2013-02-03 10:29:00,53.3,17.5,29.98,NW,321,3.0,22.5,24,0.00,,OVC120,0.00,VWS V14.01,2013-02-03 17:29:00,
2013-02-03 10:30:00,53.6,16.7,29.97,NW,320,6.0,22.5,23,0.00,,BKN200,0.00,VWS V14.01,2013-02-03 17:30:00,
2013-02-03 10:34:00,53.6,16.7,29.97,NW,320,6.0,22.5,23,0.00,,OVC120,0.00,VWS V14.01,2013-02-03 17:34:00,
2013-02-03 10:39:00,53.9,17.0,29.97,North,0,6.0,22.5,23,0.00,,OVC120,0.00,VWS V14.01,2013-02-03 17:39:00,
2013-02-03 10:40:00,54.7,17.6,29.97,NW,304,3.0,22.5,23,0.00,,BKN200,0.00,VWS V14.01,2013-02-03 17:40:00,
2013-02-03 10:44:00,54.7,17.6,29.97,NW,305,3.0,22.5,23,0.00,,OVC120,0.00,VWS V14.01,2013-02-03 17:44:00,
2013-02-03 10:49:00,55.0,16.9,29.96,NNW,330,3.0,22.5,22,0.00,,OVC120,0.00,VWS V14.01,2013-02-03 17:49:00,
2013-02-03 10:50:00,55.1,17.0,29.96,NNW,332,1.5,22.5,22,0.00,,BKN200,0.00,VWS V14.01,2013-02-03 17:50:00,
2013-02-03 10:54:00,55.1,17.0,29.96,North,0,1.5,22.5,22,0.00,,OVC120,0.00,VWS V14.01,2013-02-03 17:54:00,
2013-02-03 10:59:00,55.9,17.6,29.96,NNE,13,3.0,22.5,22,0.00,,OVC110,0.00,VWS V14.01,2013-02-03 17:59:00,
2013-02-03 11:00:00,56.5,17.1,29.95,North,0,3.0,22.5,21,0.00,,BKN200,0.00,VWS V14.01,2013-02-03 18:00:00,
2013-02-03 11:04:00,56.5,17.1,29.95,North,0,3.0,22.5,21,0.00,,OVC110,0.00,VWS V14.01,2013-02-03 18:04:00,
2013-02-03 11:09:00,56.9,16.3,29.95,East,82,3.0,22.5,20,0.00,,OVC110,0.00,VWS V14.01,2013-02-03 18:09:00,
2013-02-03 11:10:00,57.0,16.4,29.95,North,0,6.0,22.5,20,0.00,,BKN200,0.00,VWS V14.01,2013-02-03 18:10:00,
2013-02-03 11:13:00,57.0,16.4,29.95,North,0,4.5,22.5,20,0.00,,OVC110,0.00,VWS V14.01,2013-02-03 18:13:00,
2013-02-03 11:18:00,57.3,16.6,29.95,SE,130,3.0,22.5,20,0.00,,OVC110,0.00,VWS V14.01,2013-02-03 18:18:00,
2013-02-03 11:20:00,57.5,15.6,29.95,North,0,4.5,22.5,19,0.00,,BKN200,0.00,VWS V14.01,2013-02-03 18:20:00,
2013-02-03 11:23:00,57.5,15.6,29.95,East,91,6.0,22.5,19,0.00,,OVC110,0.00,VWS V14.01,2013-02-03 18:23:00,
2013-02-03 11:28:00,57.8,15.8,29.95,East,82,4.5,22.5,19,0.00,,OVC110,0.00,VWS V14.01,2013-02-03 18:28:00,
2013-02-03 11:30:00,58.1,17.3,29.94,North,0,3.0,22.5,20,0.00,,BKN200,0.00,VWS V14.01,2013-02-03 18:30:00,
2013-02-03 11:33:00,58.1,17.3,29.94,North,0,3.0,22.5,20,0.00,,OVC110,0.00,VWS V14.01,2013-02-03 18:33:00,
2013-02-03 11:38:00,58.9,16.7,29.94,North,0,7.5,22.5,19,0.00,,OVC110,0.00,VWS V14.01,2013-02-03 18:38:00,
2013-02-03 11:40:00,59.0,16.8,29.94,North,0,1.5,22.5,19,0.00,,BKN200,0.00,VWS V14.01,2013-02-03 18:40:00,
2013-02-03 11:43:00,59.0,16.8,29.94,North,0,1.5,22.5,19,0.00,,OVC110,0.00,VWS V14.01,2013-02-03 18:43:00,
2013-02-03 11:48:00,59.5,16.0,29.93,North,0,3.0,22.5,18,0.00,,OVC110,0.00,VWS V14.01,2013-02-03 18:48:00,
2013-02-03 11:50:00,59.6,17.3,29.93,North,0,3.0,22.5,19,0.00,,BKN200,0.00,VWS V14.01,2013-02-03 18:50:00,
2013-02-03 11:53:00,59.6,17.3,29.93,North,0,3.0,22.5,19,0.00,,OVC110,0.00,VWS V14.01,2013-02-03 18:53:00,
2013-02-03 11:58:00,60.1,17.7,29.93,SE,134,4.5,22.5,19,0.00,,BKN200,0.00,VWS V14.01,2013-02-03 18:58:00,
2013-02-03 12:00:00,59.6,17.3,29.92,North,0,3.0,22.5,19,0.00,,BKN200,0.00,VWS V14.01,2013-02-03 19:00:00,
2013-02-03 12:03:00,59.6,17.3,29.92,North,0,3.0,22.5,19,0.00,,BKN200,0.00,VWS V14.01,2013-02-03 19:03:00,
2013-02-03 12:08:00,59.3,17.1,29.92,South,172,1.5,22.5,19,0.00,,BKN200,0.00,VWS V14.01,2013-02-03 19:08:00,
2013-02-03 12:10:00,59.5,17.2,29.92,South,185,4.5,22.5,19,0.00,,BKN200,0.00,VWS V14.01,2013-02-03 19:10:00,
2013-02-03 12:13:00,59.5,17.2,29.92,South,185,4.5,22.5,19,0.00,,BKN200,0.00,VWS V14.01,2013-02-03 19:13:00,
2013-02-03 12:18:00,59.8,17.5,29.91,South,185,4.5,22.5,19,0.00,,BKN200,0.00,VWS V14.01,2013-02-03 19:18:00,
2013-02-03 12:20:00,59.9,16.3,29.91,South,185,0.0,22.5,18,0.00,,BKN200,0.00,VWS V14.01,2013-02-03 19:20:00,
2013-02-03 12:23:00,59.9,16.3,29.91,South,185,0.0,22.5,18,0.00,,BKN200,0.00,VWS V14.01,2013-02-03 19:23:00,
2013-02-03 12:28:00,59.9,16.3,29.91,South,185,1.5,22.5,18,0.00,,BKN200,0.00,VWS V14.01,2013-02-03 19:28:00,
2013-02-03 12:30:00,60.2,17.8,29.89,South,185,3.0,22.5,19,0.00,,BKN200,0.00,VWS V14.01,2013-02-03 19:30:00,
2013-02-03 12:33:00,60.2,17.8,29.89,South,185,3.0,22.5,19,0.00,,BKN200,0.00,VWS V14.01,2013-02-03 19:33:00,
2013-02-03 12:38:00,60.7,18.2,29.89,South,185,3.0,22.5,19,0.00,,BKN200,0.00,VWS V14.01,2013-02-03 19:38:00,
2013-02-03 12:40:00,60.9,15.8,29.89,South,185,1.5,22.5,17,0.00,,BKN200,0.00,VWS V14.01,2013-02-03 19:40:00,
2013-02-03 12:43:00,60.9,17.1,29.89,South,185,3.0,22.5,18,0.00,,BKN200,0.00,VWS V14.01,2013-02-03 19:43:00,
2013-02-03 12:48:00,61.2,19.8,29.89,South,185,1.5,22.5,20,0.00,,BKN200,0.00,VWS V14.01,2013-02-03 19:48:00,
2013-02-03 12:50:00,61.2,17.4,29.89,WNW,293,6.0,22.5,18,0.00,,BKN200,0.00,VWS V14.01,2013-02-03 19:50:00,
2013-02-03 12:53:00,61.2,17.4,29.89,WNW,293,6.0,22.5,18,0.00,,BKN200,0.00,VWS V14.01,2013-02-03 19:53:00,
2013-02-03 12:58:00,61.0,17.2,29.89,North,0,6.0,22.5,18,0.00,,BKN200,0.00,VWS V14.01,2013-02-03 19:58:00,
2013-02-03 13:00:00,60.9,17.1,29.88,North,0,3.0,22.5,18,0.00,,BKN200,0.00,VWS V14.01,2013-02-03 20:00:00,
2013-02-03 13:03:00,60.9,17.1,29.88,NW,323,3.0,22.5,18,0.00,,BKN200,0.00,VWS V14.01,2013-02-03 20:03:00,
2013-02-03 13:08:00,60.5,16.8,29.88,North,349,6.0,22.5,18,0.00,,BKN200,0.00,VWS V14.01,2013-02-03 20:08:00,
2013-02-03 13:10:00,60.5,16.8,29.88,North,0,4.5,22.5,18,0.00,,BKN200,0.00,VWS V14.01,2013-02-03 20:10:00,
2013-02-03 13:13:00,60.5,16.8,29.88,North,0,6.0,22.5,18,0.00,,BKN200,0.00,VWS V14.01,2013-02-03 20:13:00,
2013-02-03 13:18:00,60.2,17.8,29.87,NNW,327,4.5,22.5,19,0.00,,BKN200,0.00,VWS V14.01,2013-02-03 20:18:00,
2013-02-03 13:20:00,60.4,16.7,29.87,NNW,327,4.5,22.5,18,0.00,,BKN200,0.00,VWS V14.01,2013-02-03 20:20:00,
2013-02-03 13:23:00,60.4,16.7,29.87,NNW,328,3.0,22.5,18,0.00,,BKN200,0.00,VWS V14.01,2013-02-03 20:23:00,
2013-02-03 13:28:00,60.5,19.2,29.87,North,358,1.5,22.5,20,0.00,,BKN200,0.00,VWS V14.01,2013-02-03 20:28:00,
2013-02-03 13:30:00,60.9,17.1,29.86,NNW,347,4.5,22.5,18,0.00,,BKN200,0.00,VWS V14.01,2013-02-03 20:30:00,
2013-02-03 13:33:00,60.7,17.0,29.86,NNW,347,6.0,22.5,18,0.00,,BKN200,0.00,VWS V14.01,2013-02-03 20:33:00,
2013-02-03 13:38:00,60.7,17.0,29.86,North,358,3.0,22.5,18,0.00,,BKN200,0.00,VWS V14.01,2013-02-03 20:38:00,
2013-02-03 13:40:00,60.7,18.2,29.86,North,358,4.5,22.5,19,0.00,,BKN200,0.00,VWS V14.01,2013-02-03 20:40:00,
2013-02-03 13:43:00,60.7,18.2,29.86,North,358,1.5,22.5,19,0.00,,BKN200,0.00,VWS V14.01,2013-02-03 20:43:00,
2013-02-03 13:48:00,61.2,17.4,29.85,North,358,4.5,22.5,18,0.00,,BKN200,0.00,VWS V14.01,2013-02-03 20:48:00,
2013-02-03 13:50:00,61.3,17.5,29.85,North,358,4.5,22.5,18,0.00,,BKN200,0.00,VWS V14.01,2013-02-03 20:50:00,
2013-02-03 13:53:00,61.3,17.5,29.85,North,358,3.0,22.5,18,0.00,,BKN200,0.00,VWS V14.01,2013-02-03 20:53:00,
2013-02-03 13:58:00,61.5,16.3,29.85,NNE,26,3.0,22.5,17,0.00,,BKN200,0.00,VWS V14.01,2013-02-03 20:58:00,
2013-02-03 14:00:00,61.6,17.7,29.84,NNE,25,0.0,22.5,18,0.00,,BKN200,0.00,VWS V14.01,2013-02-03 21:00:00,
2013-02-03 14:03:00,61.6,17.7,29.84,NNE,25,1.5,22.5,18,0.00,,BKN200,0.00,VWS V14.01,2013-02-03 21:03:00,
2013-02-03 14:08:00,62.1,18.1,29.84,SSW,198,1.5,22.5,18,0.00,,BKN200,0.00,VWS V14.01,2013-02-03 21:08:00,
2013-02-03 14:10:00,62.3,18.3,29.84,SSW,198,0.0,22.5,18,0.00,,BKN200,0.00,VWS V14.01,2013-02-03 21:10:00,
2013-02-03 14:13:00,62.3,18.3,29.84,SSW,198,0.0,22.5,18,0.00,,BKN200,0.00,VWS V14.01,2013-02-03 21:13:00,
2013-02-03 14:18:00,62.4,24.1,29.84,South,179,0.0,22.5,23,0.00,,BKN200,0.00,VWS V14.01,2013-02-03 21:18:00,
2013-02-03 14:20:00,62.6,17.2,29.84,South,177,0.0,22.5,17,0.00,,BKN200,0.00,VWS V14.01,2013-02-03 21:20:00,
2013-02-03 14:23:00,62.4,17.0,29.84,South,177,1.5,22.5,17,0.00,,BKN200,0.00,VWS V14.01,2013-02-03 21:23:00,
2013-02-03 14:28:00,62.6,18.5,29.84,South,177,0.0,22.5,18,0.00,,BKN200,0.00,VWS V14.01,2013-02-03 21:28:00,
2013-02-03 14:30:00,62.6,17.2,29.83,South,177,3.0,22.5,17,0.00,,BKN200,0.00,VWS V14.01,2013-02-03 21:30:00,
2013-02-03 14:33:00,62.6,17.2,29.83,South,177,1.5,22.5,17,0.00,,BKN200,0.00,VWS V14.01,2013-02-03 21:33:00,
2013-02-03 14:38:00,62.4,18.4,29.83,South,177,4.5,22.5,18,0.00,,BKN200,0.00,VWS V14.01,2013-02-03 21:38:00,
2013-02-03 14:40:00,62.3,17.0,29.83,South,171,4.5,22.5,17,0.00,,BKN200,0.00,VWS V14.01,2013-02-03 21:40:00,
2013-02-03 14:43:00,62.3,17.0,29.83,South,170,3.0,22.5,17,0.00,,BKN200,0.00,VWS V14.01,2013-02-03 21:43:00,
2013-02-03 14:48:00,62.1,16.8,29.83,SSW,195,4.5,22.5,17,0.00,,BKN200,0.00,VWS V14.01,2013-02-03 21:48:00,
2013-02-03 14:50:00,62.0,18.0,29.83,SSW,195,1.5,22.5,18,0.00,,BKN200,0.00,VWS V14.01,2013-02-03 21:50:00,
2013-02-03 14:53:00,62.0,19.3,29.83,SSW,195,3.0,22.5,19,0.00,,BKN200,0.00,VWS V14.01,2013-02-03 21:53:00,
2013-02-03 14:58:00,62.1,16.8,29.83,SSW,195,6.0,22.5,17,0.00,,BKN200,0.00,VWS V14.01,2013-02-03 21:58:00,
2013-02-03 15:00:00,62.3,18.3,29.83,SSW,195,4.5,22.5,18,0.00,,BKN200,0.00,VWS V14.01,2013-02-03 22:00:00,
2013-02-03 15:03:00,62.3,18.3,29.83,SSW,195,4.5,22.5,18,0.00,,BKN200,0.00,VWS V14.01,2013-02-03 22:03:00,
2013-02-03 15:08:00,62.4,18.4,29.83,SSW,195,6.0,22.5,18,0.00,,BKN200,0.00,VWS V14.01,2013-02-03 22:08:00,
2013-02-03 15:13:00,62.6,17.2,29.83,SSW,195,0.0,22.5,17,0.00,,BKN200,0.00,VWS V14.01,2013-02-03 22:13:00,
2013-02-03 15:18:00,62.7,18.6,29.82,SSW,195,4.5,0.0,18,0.00,,BKN200,0.00,VWS V14.01,2013-02-03 22:18:00,
2013-02-03 15:23:00,62.7,18.6,29.82,SSW,195,3.0,0.0,18,0.00,,BKN200,0.00,VWS V14.01,2013-02-03 22:23:00,
2013-02-03 15:28:00,62.9,17.5,29.82,SSW,195,3.0,0.0,17,0.00,,BKN200,0.00,VWS V14.01,2013-02-03 22:28:00,
2013-02-03 15:33:00,62.6,17.2,29.82,SSW,195,4.5,0.0,17,0.00,,BKN200,0.00,VWS V14.01,2013-02-03 22:33:00,
2013-02-03 15:38:00,62.4,18.4,29.82,SSW,195,1.5,0.0,18,0.00,,BKN200,0.00,VWS V14.01,2013-02-03 22:38:00,
2013-02-03 15:43:00,62.3,17.0,29.82,SSW,195,0.0,0.0,17,0.00,,BKN200,0.00,VWS V14.01,2013-02-03 22:43:00,
2013-02-03 15:48:00,62.4,17.0,29.81,SSW,195,1.5,0.0,17,0.00,,BKN200,0.00,VWS V14.01,2013-02-03 22:48:00,
2013-02-03 15:53:00,62.3,17.0,29.81,SSW,195,3.0,0.0,17,0.00,,BKN200,0.00,VWS V14.01,2013-02-03 22:53:00,
2013-02-03 15:58:00,62.3,17.0,29.81,SSW,195,3.0,0.0,17,0.00,,BKN200,0.00,VWS V14.01,2013-02-03 22:58:00,
2013-02-03 16:03:00,62.1,16.8,29.81,SSW,195,4.5,0.0,17,0.00,,BKN200,0.00,VWS V14.01,2013-02-03 23:03:00,
2013-02-03 16:08:00,62.0,15.3,29.81,SSW,195,4.5,0.0,16,0.00,,BKN200,0.00,VWS V14.01,2013-02-03 23:08:00,
2013-02-03 16:13:00,61.8,16.5,29.81,SSW,195,3.0,0.0,17,0.00,,BKN200,0.00,VWS V14.01,2013-02-03 23:13:00,
2013-02-03 16:18:00,61.6,17.7,29.81,SSW,195,3.0,0.0,18,0.00,,BKN200,0.00,VWS V14.01,2013-02-03 23:18:00,
2013-02-03 16:23:00,61.6,16.4,29.81,North,0,3.0,0.0,17,0.00,,BKN200,0.00,VWS V14.01,2013-02-03 23:23:00,
2013-02-03 16:28:00,61.5,16.3,29.81,SSW,195,3.0,0.0,17,0.00,,BKN200,0.00,VWS V14.01,2013-02-03 23:28:00,
2013-02-03 16:33:00,61.3,16.1,29.80,South,171,6.0,0.0,17,0.00,,BKN200,0.00,VWS V14.01,2013-02-03 23:33:00,
2013-02-03 16:38:00,61.2,16.1,29.80,South,171,1.5,0.0,17,0.00,,BKN200,0.00,VWS V14.01,2013-02-03 23:38:00,
2013-02-03 16:43:00,61.0,15.9,29.80,South,171,4.5,0.0,17,0.00,,BKN200,0.00,VWS V14.01,2013-02-03 23:43:00,
2013-02-03 16:48:00,61.0,15.9,29.80,South,171,4.5,0.0,17,0.00,,BKN200,0.00,VWS V14.01,2013-02-03 23:48:00,
2013-02-03 16:53:00,60.9,15.8,29.80,South,171,3.0,0.0,17,0.00,,BKN200,0.00,VWS V14.01,2013-02-03 23:53:00,
2013-02-03 16:58:00,60.9,15.8,29.80,South,171,3.0,0.0,17,0.00,,BKN200,0.00,VWS V14.01,2013-02-03 23:58:00,
2013-02-03 17:03:00,60.7,15.7,29.80,South,171,1.5,0.0,17,0.00,,BKN200,0.00,VWS V14.01,2013-02-04 00:03:00,
2013-02-03 17:08:00,60.5,15.5,29.80,South,171,1.5,0.0,17,0.00,,BKN200,0.00,VWS V14.01,2013-02-04 00:08:00,
2013-02-03 17:13:00,60.4,15.4,29.80,South,171,3.0,0.0,17,0.00,,BKN200,0.00,VWS V14.01,2013-02-04 00:13:00,
2013-02-03 17:18:00,60.2,16.6,29.81,South,171,1.5,0.0,18,0.00,,BKN200,0.00,VWS V14.01,2013-02-04 00:18:00,
2013-02-03 17:23:00,60.2,15.2,29.81,South,171,3.0,0.0,17,0.00,,BKN200,0.00,VWS V14.01,2013-02-04 00:23:00,
2013-02-03 17:28:00,60.2,16.6,29.81,South,171,1.5,0.0,18,0.00,,BKN200,0.00,VWS V14.01,2013-02-04 00:28:00,
2013-02-03 17:33:00,60.1,16.5,29.81,South,171,4.5,0.0,18,0.00,,BKN200,0.00,VWS V14.01,2013-02-04 00:33:00,
2013-02-03 17:38:00,60.1,16.5,29.81,South,171,3.0,0.0,18,0.00,,BKN200,0.00,VWS V14.01,2013-02-04 00:38:00,
2013-02-03 17:43:00,59.9,16.3,29.81,South,171,1.5,0.0,18,0.00,,BKN200,0.00,VWS V14.01,2013-02-04 00:43:00,
2013-02-03 17:48:00,59.9,16.3,29.81,South,171,1.5,0.0,18,0.00,,BKN200,0.00,VWS V14.01,2013-02-04 00:48:00,
2013-02-03 17:53:00,59.6,17.3,29.81,South,171,4.5,0.0,19,0.00,,BKN200,0.00,VWS V14.01,2013-02-04 00:53:00,
2013-02-03 17:58:00,59.3,17.1,29.81,South,171,3.0,0.0,19,0.00,,BKN200,0.00,VWS V14.01,2013-02-04 00:58:00,
2013-02-03 18:03:00,59.2,15.7,29.81,South,171,3.0,0.0,18,0.00,,BKN200,0.00,VWS V14.01,2013-02-04 01:03:00,
2013-02-03 18:07:00,59.0,16.8,29.81,South,171,1.5,0.0,19,0.00,,BKN200,0.00,VWS V14.01,2013-02-04 01:07:00,
2013-02-03 18:12:00,58.9,21.2,29.81,South,171,1.5,0.0,23,0.00,,BKN200,0.00,VWS V14.01,2013-02-04 01:12:00,
2013-02-03 18:17:00,58.7,21.0,29.81,South,171,3.0,0.0,23,0.00,,BKN200,0.00,VWS V14.01,2013-02-04 01:17:00,
2013-02-03 18:22:00,58.4,18.6,29.82,South,171,0.0,0.0,21,0.00,,BKN200,0.00,VWS V14.01,2013-02-04 01:22:00,
2013-02-03 18:27:00,58.3,17.4,29.82,South,171,3.0,0.0,20,0.00,,BKN200,0.00,VWS V14.01,2013-02-04 01:27:00,
2013-02-03 18:32:00,58.1,17.3,29.82,South,171,1.5,0.0,20,0.00,,BKN200,0.00,VWS V14.01,2013-02-04 01:32:00,
2013-02-03 18:37:00,58.0,18.3,29.82,South,171,1.5,0.0,21,0.00,,BKN200,0.00,VWS V14.01,2013-02-04 01:37:00,
2013-02-03 18:42:00,57.8,18.1,29.82,South,171,3.0,0.0,21,0.00,,BKN200,0.00,VWS V14.01,2013-02-04 01:42:00,
2013-02-03 18:47:00,57.6,16.9,29.82,South,171,1.5,0.0,20,0.00,,BKN200,0.00,VWS V14.01,2013-02-04 01:47:00,
2013-02-03 18:52:00,57.6,15.7,29.82,South,171,1.5,0.0,19,0.00,,BKN200,0.00,VWS V14.01,2013-02-04 01:52:00,
2013-02-03 18:57:00,58.0,16.0,29.82,South,171,4.5,0.0,19,0.00,,OVC200,0.00,VWS V14.01,2013-02-04 01:57:00,
2013-02-03 19:02:00,58.1,16.1,29.82,South,171,1.5,0.0,19,0.00,,OVC200,0.00,VWS V14.01,2013-02-04 02:02:00,
2013-02-03 19:07:00,58.1,16.1,29.83,South,171,1.5,0.0,19,0.00,,OVC200,0.00,VWS V14.01,2013-02-04 02:07:00,
2013-02-03 19:12:00,58.1,16.1,29.83,South,171,3.0,0.0,19,0.00,,OVC200,0.00,VWS V14.01,2013-02-04 02:12:00,
2013-02-03 19:17:00,58.1,16.1,29.83,South,171,3.0,0.0,19,0.00,,OVC200,0.00,VWS V14.01,2013-02-04 02:17:00,
2013-02-03 19:22:00,57.8,17.0,29.83,South,171,3.0,0.0,20,0.00,,OVC200,0.00,VWS V14.01,2013-02-04 02:22:00,
2013-02-03 19:27:00,57.6,16.9,29.83,South,171,4.5,0.0,20,0.00,,OVC200,0.00,VWS V14.01,2013-02-04 02:27:00,
2013-02-03 19:32:00,57.5,16.8,29.83,South,172,4.5,0.0,20,0.00,,OVC200,0.00,VWS V14.01,2013-02-04 02:32:00,
2013-02-03 19:37:00,57.5,16.8,29.83,NW,316,6.0,0.0,20,0.00,,OVC200,0.00,VWS V14.01,2013-02-04 02:37:00,
2013-02-03 19:42:00,57.3,16.6,29.83,NW,319,6.0,0.0,20,0.00,,OVC200,0.00,VWS V14.01,2013-02-04 02:42:00,
2013-02-03 19:47:00,57.3,16.6,29.83,NNW,342,7.5,0.0,20,0.00,,OVC200,0.00,VWS V14.01,2013-02-04 02:47:00,
2013-02-03 19:52:00,57.3,16.6,29.83,North,0,10.5,0.0,20,0.00,,OVC200,0.00,VWS V14.01,2013-02-04 02:52:00,
2013-02-03 19:57:00,57.3,16.6,29.83,NW,319,4.5,0.0,20,0.00,,OVC100,0.00,VWS V14.01,2013-02-04 02:57:00,
2013-02-03 20:02:00,57.3,16.6,29.83,NW,319,3.0,0.0,20,0.00,,OVC100,0.00,VWS V14.01,2013-02-04 03:02:00,
2013-02-03 20:07:00,57.3,16.6,29.84,NNW,343,3.0,0.0,20,0.00,,OVC100,0.00,VWS V14.01,2013-02-04 03:07:00,
2013-02-03 20:12:00,57.2,16.5,29.84,NNW,342,4.5,0.0,20,0.00,,OVC100,0.00,VWS V14.01,2013-02-04 03:12:00,
2013-02-03 20:17:00,57.2,15.3,29.84,North,358,4.5,0.0,19,0.00,,OVC100,0.00,VWS V14.01,2013-02-04 03:17:00,
2013-02-03 20:22:00,57.0,16.4,29.84,NW,319,7.5,0.0,20,0.00,,OVC100,0.00,VWS V14.01,2013-02-04 03:22:00,
2013-02-03 20:27:00,56.9,16.3,29.84,NNW,334,4.5,0.0,20,0.00,,OVC100,0.00,VWS V14.01,2013-02-04 03:27:00,
2013-02-03 20:32:00,56.7,17.2,29.84,NW,326,9.0,0.0,21,0.00,,OVC100,0.00,VWS V14.01,2013-02-04 03:32:00,
2013-02-03 20:37:00,56.7,18.3,29.86,NW,312,7.5,0.0,22,0.00,,OVC100,0.00,VWS V14.01,2013-02-04 03:37:00,
2013-02-03 20:42:00,56.7,19.3,29.86,NW,304,3.0,0.0,23,0.00,,OVC100,0.00,VWS V14.01,2013-02-04 03:42:00,
2013-02-03 20:47:00,56.9,20.5,29.86,North,0,4.5,0.0,24,0.00,,OVC100,0.00,VWS V14.01,2013-02-04 03:47:00,
2013-02-03 20:52:00,56.9,24.1,29.86,North,0,7.5,0.0,28,0.00,,OVC100,0.00,VWS V14.01,2013-02-04 03:52:00,
2013-02-03 20:57:00,56.7,24.8,29.86,NNW,348,6.0,0.0,29,0.00,,OVC090,0.00,VWS V14.01,2013-02-04 03:57:00,
2013-02-03 21:02:00,56.6,24.7,29.86,NNW,330,6.0,0.0,29,0.00,,OVC090,0.00,VWS V14.01,2013-02-04 04:02:00,
2013-02-03 21:07:00,56.6,23.9,29.84,NNW,346,6.0,0.0,28,0.00,,OVC090,0.00,VWS V14.01,2013-02-04 04:07:00,
2013-02-03 21:12:00,56.3,23.6,29.84,NNW,348,4.5,0.0,28,0.00,,OVC090,0.00,VWS V14.01,2013-02-04 04:12:00,
2013-02-03 21:17:00,56.3,26.1,29.84,NNW,338,4.5,0.0,31,0.00,,OVC090,0.00,VWS V14.01,2013-02-04 04:17:00,
2013-02-03 21:22:00,56.2,26.0,29.83,NNW,345,6.0,0.0,31,0.00,,OVC090,0.00,VWS V14.01,2013-02-04 04:22:00,
2013-02-03 21:27:00,56.2,26.0,29.83,NNW,346,3.0,0.0,31,0.00,,OVC090,0.00,VWS V14.01,2013-02-04 04:27:00,
2013-02-03 21:32:00,56.0,25.8,29.83,NNW,346,0.0,0.0,31,0.00,,OVC090,0.00,VWS V14.01,2013-02-04 04:32:00,
2013-02-03 21:37:00,55.9,27.2,29.83,NNW,346,0.0,0.0,33,0.00,,OVC090,0.00,VWS V14.01,2013-02-04 04:37:00,
2013-02-03 21:42:00,55.9,27.2,29.83,NNW,346,0.0,0.0,33,0.00,,OVC090,0.00,VWS V14.01,2013-02-04 04:42:00,
2013-02-03 21:47:00,55.7,27.1,29.83,NNW,345,3.0,0.0,33,0.00,,OVC090,0.00,VWS V14.01,2013-02-04 04:47:00,
2013-02-03 21:52:00,55.4,27.5,29.82,NNW,346,1.5,0.0,34,0.00,,OVC090,0.00,VWS V14.01,2013-02-04 04:52:00,
2013-02-03 21:57:00,55.4,27.5,29.82,NNW,346,0.0,0.0,34,0.00,,OVC200,0.00,VWS V14.01,2013-02-04 04:57:00,
2013-02-03 22:00:00,55.3,27.4,29.82,NNW,346,0.0,0.0,34,0.00,,OVC200,0.00,VWS V14.01,2013-02-04 05:00:00,
2013-02-03 22:01:00,55.3,27.4,29.82,NNW,346,0.0,0.0,34,0.00,,OVC200,0.00,VWS V14.01,2013-02-04 05:01:00,
2013-02-03 22:06:00,55.1,28.0,29.82,NNW,346,1.5,0.0,35,0.00,,OVC200,0.00,VWS V14.01,2013-02-04 05:06:00,
2013-02-03 22:11:00,54.7,28.3,29.82,NNW,346,3.0,0.0,36,0.00,,OVC200,0.00,VWS V14.01,2013-02-04 05:11:00,
2013-02-03 22:16:00,54.4,28.0,29.82,NNW,345,3.0,0.0,36,0.00,,OVC200,0.00,VWS V14.01,2013-02-04 05:16:00,
2013-02-03 22:21:00,54.1,27.1,29.82,South,182,3.0,0.0,35,0.00,,OVC200,0.00,VWS V14.01,2013-02-04 05:21:00,
2013-02-03 22:26:00,54.1,27.1,29.82,South,180,1.5,0.0,35,0.00,,OVC200,0.00,VWS V14.01,2013-02-04 05:26:00,
2013-02-03 22:31:00,54.1,27.8,29.82,South,180,1.5,0.0,36,0.00,,OVC200,0.00,VWS V14.01,2013-02-04 05:31:00,
2013-02-03 22:36:00,53.9,28.2,29.81,SE,141,6.0,0.0,37,0.00,,OVC200,0.00,VWS V14.01,2013-02-04 05:36:00,
2013-02-03 22:41:00,53.9,28.2,29.81,SE,131,1.5,0.0,37,0.00,,OVC200,0.00,VWS V14.01,2013-02-04 05:41:00,
2013-02-03 22:46:00,53.9,28.2,29.81,North,0,3.0,0.0,37,0.00,,OVC200,0.00,VWS V14.01,2013-02-04 05:46:00,
2013-02-03 22:51:00,53.9,28.2,29.82,North,0,4.5,0.0,37,0.00,,OVC200,0.00,VWS V14.01,2013-02-04 05:51:00,
2013-02-03 22:56:00,53.6,28.6,29.82,ESE,115,3.0,0.0,38,0.00,,BKN200,0.00,VWS V14.01,2013-02-04 05:56:00,
2013-02-03 23:01:00,53.3,28.4,29.82,ESE,106,6.0,0.0,38,0.00,,BKN200,0.00,VWS V14.01,2013-02-04 06:01:00,
2013-02-03 23:06:00,53.3,28.4,29.82,North,0,9.0,0.0,38,0.00,,BKN200,0.00,VWS V14.01,2013-02-04 06:06:00,
2013-02-03 23:11:00,53.6,28.6,29.82,North,0,10.5,0.0,38,0.00,,BKN200,0.00,VWS V14.01,2013-02-04 06:11:00,
2013-02-03 23:16:00,53.8,28.8,29.82,SE,129,9.0,0.0,38,0.00,,BKN200,0.00,VWS V14.01,2013-02-04 06:16:00,
2013-02-03 23:21:00,53.8,28.8,29.82,North,0,3.0,0.0,38,0.00,,BKN200,0.00,VWS V14.01,2013-02-04 06:21:00,
2013-02-03 23:26:00,53.6,28.0,29.82,North,0,1.5,0.0,37,0.00,,BKN200,0.00,VWS V14.01,2013-02-04 06:26:00,
2013-02-03 23:31:00,53.5,27.2,29.82,North,0,3.0,0.0,36,0.00,,BKN200,0.00,VWS V14.01,2013-02-04 06:31:00,
2013-02-03 23:36:00,53.6,28.0,29.82,East,86,3.0,0.0,37,0.00,,BKN200,0.00,VWS V14.01,2013-02-04 06:36:00,
2013-02-03 23:41:00,53.9,27.6,29.82,SE,141,4.5,0.0,36,0.00,,BKN200,0.00,VWS V14.01,2013-02-04 06:41:00,
2013-02-03 23:46:00,54.5,28.8,29.82,SE,132,4.5,0.0,37,0.00,,BKN200,0.00,VWS V14.01,2013-02-04 06:46:00,
2013-02-03 23:51:00,54.2,28.5,29.81,North,0,1.5,0.0,37,0.00,,BKN200,0.00,VWS V14.01,2013-02-04 06:51:00,
2013-02-03 23:56:00,53.8,28.8,29.81,SE,143,4.5,0.0,38,0.00,,SCT110,0.00,VWS V14.01,2013-02-04 06:56:00,